Time,TemperatureF,DewpointF,PressureIn,WindDirection,WindDirectionDegrees,WindSpeedMPH,WindSpeedGustMPH,Humidity,HourlyPrecipIn,Conditions,Clouds,dailyrainin,SoftwareType,DateUTC
2013-05-15 00:11:00,45.0,40.0,29.58,ESE,106,10.0,15.0,83,0.00,,,0.00,weatherlink.com 1.10,2013-05-15 04:11:00,
2013-05-15 00:26:00,45.1,40.0,29.56,ESE,119,7.0,15.0,83,0.00,,,0.00,weatherlink.com 1.10,2013-05-15 04:26:00,
2013-05-15 00:41:00,45.0,40.0,29.56,ESE,115,9.0,14.0,83,0.00,,,0.00,weatherlink.com 1.10,2013-05-15 04:41:00,
2013-05-15 00:56:00,45.2,40.0,29.54,ESE,112,8.0,14.0,83,0.00,,,0.00,weatherlink.com 1.10,2013-05-15 04:56:00,
2013-05-15 01:11:00,45.1,40.0,29.54,ESE,112,11.0,15.0,83,0.00,,,0.00,weatherlink.com 1.10,2013-05-15 05:11:00,
2013-05-15 01:26:00,45.3,40.0,29.53,ESE,108,6.0,13.0,83,0.00,,,0.00,weatherlink.com 1.10,2013-05-15 05:26:00,
2013-05-15 01:42:00,45.3,40.0,29.51,ESE,102,9.0,12.0,83,0.00,,,0.00,weatherlink.com 1.10,2013-05-15 05:42:00,
2013-05-15 01:57:00,45.4,41.0,29.51,ESE,108,4.0,9.0,83,0.00,,,0.00,weatherlink.com 1.10,2013-05-15 05:57:00,
2013-05-15 02:12:00,45.3,40.0,29.49,ESE,110,6.0,8.0,83,0.00,,,0.00,weatherlink.com 1.10,2013-05-15 06:12:00,
2013-05-15 02:27:00,45.0,41.0,29.47,East,82,6.0,8.0,84,0.00,,,0.00,weatherlink.com 1.10,2013-05-15 06:27:00,
2013-05-15 02:43:00,44.7,40.0,29.44,East,95,7.0,9.0,84,0.00,,,0.00,weatherlink.com 1.10,2013-05-15 06:43:00,
2013-05-15 02:57:00,44.4,40.0,29.42,ESE,120,8.0,13.0,85,0.00,,,0.00,weatherlink.com 1.10,2013-05-15 06:57:00,
2013-05-15 03:12:00,44.4,40.0,29.42,ENE,67,5.0,8.0,85,0.00,,,0.00,weatherlink.com 1.10,2013-05-15 07:12:00,
2013-05-15 03:27:00,44.1,40.0,29.40,East,95,7.0,8.0,86,0.00,,,0.00,weatherlink.com 1.10,2013-05-15 07:27:00,
2013-05-15 03:42:00,44.1,41.0,29.39,East,101,8.0,10.0,87,0.00,,,0.00,weatherlink.com 1.10,2013-05-15 07:42:00,
2013-05-15 03:57:00,44.1,41.0,29.39,East,91,6.0,9.0,87,0.00,,,0.00,weatherlink.com 1.10,2013-05-15 07:57:00,
2013-05-15 04:12:00,43.9,40.0,29.40,ENE,75,3.0,6.0,87,0.00,,,0.00,weatherlink.com 1.10,2013-05-15 08:12:00,
2013-05-15 04:27:00,43.6,40.0,29.40,ENE,77,1.0,4.0,87,0.00,,,0.00,weatherlink.com 1.10,2013-05-15 08:27:00,
2013-05-15 04:42:00,43.0,40.0,29.40,ENE,71,1.0,3.0,89,0.00,,,0.00,weatherlink.com 1.10,2013-05-15 08:42:00,
2013-05-15 04:57:00,42.9,40.0,29.39,ENE,71,3.0,4.0,89,0.00,,,0.00,weatherlink.com 1.10,2013-05-15 08:57:00,
2013-05-15 05:12:00,42.8,40.0,29.38,ENE,70,1.0,4.0,89,0.00,,,0.00,weatherlink.com 1.10,2013-05-15 09:12:00,
2013-05-15 05:27:00,42.4,39.0,29.38,East,82,0.0,1.0,89,0.00,,,0.00,weatherlink.com 1.10,2013-05-15 09:27:00,
2013-05-15 05:57:00,40.2,38.0,29.40,WSW,246,0.0,2.0,91,0.00,,,0.00,weatherlink.com 1.10,2013-05-15 09:57:00,
2013-05-15 06:12:00,41.3,40.0,29.39,ESE,117,0.0,1.0,93,0.00,,,0.00,weatherlink.com 1.10,2013-05-15 10:12:00,
2013-05-15 06:27:00,40.1,38.0,29.40,ESE,117,0.0,0.0,92,0.00,,,0.00,weatherlink.com 1.10,2013-05-15 10:27:00,
2013-05-15 06:42:00,40.3,38.0,29.40,WSW,242,0.0,1.0,91,0.00,,,0.00,weatherlink.com 1.10,2013-05-15 10:42:00,
2013-05-15 06:57:00,41.0,39.0,29.41,West,281,0.0,0.0,91,0.00,,,0.00,weatherlink.com 1.10,2013-05-15 10:57:00,
2013-05-15 07:12:00,42.1,39.0,29.41,West,259,0.0,1.0,90,0.00,,,0.00,weatherlink.com 1.10,2013-05-15 11:12:00,
2013-05-15 07:27:00,43.9,41.0,29.41,West,259,0.0,0.0,88,0.00,,,0.00,weatherlink.com 1.10,2013-05-15 11:27:00,
2013-05-15 07:42:00,46.1,42.0,29.42,NNE,23,1.0,1.0,85,0.00,,,0.00,weatherlink.com 1.10,2013-05-15 11:42:00,
2013-05-15 07:57:00,46.3,42.0,29.42,North,356,2.0,3.0,85,0.00,,,0.00,weatherlink.com 1.10,2013-05-15 11:57:00,
2013-05-15 08:12:00,46.5,42.0,29.42,NE,36,1.0,2.0,85,0.00,,,0.00,weatherlink.com 1.10,2013-05-15 12:12:00,
2013-05-15 08:43:00,49.8,43.0,29.44,NNW,331,3.0,8.0,78,0.00,,,0.00,weatherlink.com 1.10,2013-05-15 12:43:00,
2013-05-15 08:58:00,51.2,43.0,29.45,NNW,338,16.0,23.0,74,0.00,,,0.00,weatherlink.com 1.10,2013-05-15 12:58:00,
2013-05-15 09:13:00,52.0,44.0,29.45,WNW,293,8.0,15.0,73,0.00,,,0.00,weatherlink.com 1.10,2013-05-15 13:13:00,
2013-05-15 09:43:00,50.0,43.0,29.46,WNW,293,8.0,20.0,76,0.00,,,0.00,weatherlink.com 1.10,2013-05-15 13:43:00,
2013-05-15 09:58:00,49.7,43.0,29.46,NW,308,11.0,20.0,78,0.00,,,0.00,weatherlink.com 1.10,2013-05-15 13:58:00,
2013-05-15 10:13:00,50.5,43.0,29.48,WNW,283,13.0,15.0,76,0.00,,,0.00,weatherlink.com 1.10,2013-05-15 14:13:00,
2013-05-15 10:28:00,50.6,44.0,29.48,NW,304,5.0,15.0,78,0.00,,,0.00,weatherlink.com 1.10,2013-05-15 14:28:00,
2013-05-15 10:58:00,52.5,44.0,29.50,WNW,288,13.0,17.0,74,0.00,,,0.00,weatherlink.com 1.10,2013-05-15 14:58:00,
2013-05-15 11:13:00,52.0,44.0,29.51,NW,311,7.0,25.0,75,0.00,,,0.00,weatherlink.com 1.10,2013-05-15 15:13:00,
2013-05-15 11:28:00,52.8,45.0,29.51,West,278,3.0,17.0,75,0.00,,,0.00,weatherlink.com 1.10,2013-05-15 15:28:00,
2013-05-15 11:43:00,52.4,45.0,29.52,WSW,252,1.0,17.0,75,0.00,,,0.00,weatherlink.com 1.10,2013-05-15 15:43:00,
2013-05-15 11:58:00,52.6,45.0,29.52,North,349,3.0,16.0,76,0.00,,,0.00,weatherlink.com 1.10,2013-05-15 15:58:00,
2013-05-15 12:13:00,53.6,46.0,29.53,WSW,248,2.0,15.0,76,0.00,,,0.00,weatherlink.com 1.10,2013-05-15 16:13:00,
2013-05-15 12:28:00,54.6,47.0,29.53,WSW,250,3.0,10.0,75,0.00,,,0.00,weatherlink.com 1.10,2013-05-15 16:28:00,
2013-05-15 12:43:00,55.9,47.0,29.54,NNW,333,5.0,14.0,72,0.00,,,0.00,weatherlink.com 1.10,2013-05-15 16:43:00,
2013-05-15 12:58:00,59.1,48.0,29.53,NW,311,7.0,21.0,68,0.00,,,0.00,weatherlink.com 1.10,2013-05-15 16:58:00,
2013-05-15 13:13:00,60.1,47.0,29.53,NNW,338,5.0,22.0,63,0.00,,,0.00,weatherlink.com 1.10,2013-05-15 17:13:00,
2013-05-15 13:28:00,60.4,47.0,29.54,NW,325,12.0,21.0,62,0.00,,,0.00,weatherlink.com 1.10,2013-05-15 17:28:00,
2013-05-15 13:43:00,61.2,47.0,29.54,NW,319,6.0,21.0,61,0.00,,,0.00,weatherlink.com 1.10,2013-05-15 17:43:00,
2013-05-15 14:13:00,62.8,46.0,29.55,NW,308,3.0,18.0,54,0.00,,,0.00,weatherlink.com 1.10,2013-05-15 18:13:00,
2013-05-15 14:28:00,63.4,45.0,29.55,West,270,5.0,23.0,52,0.00,,,0.00,weatherlink.com 1.10,2013-05-15 18:28:00,
2013-05-15 14:43:00,63.9,44.0,29.55,West,267,4.0,17.0,49,0.00,,,0.00,weatherlink.com 1.10,2013-05-15 18:43:00,
2013-05-15 14:58:00,64.0,44.0,29.55,NW,315,11.0,20.0,49,0.00,,,0.00,weatherlink.com 1.10,2013-05-15 18:58:00,
2013-05-15 15:13:00,63.6,44.0,29.56,WNW,282,1.0,24.0,50,0.00,,,0.00,weatherlink.com 1.10,2013-05-15 19:13:00,
2013-05-15 15:28:00,64.0,43.0,29.55,West,281,7.0,20.0,47,0.00,,,0.00,weatherlink.com 1.10,2013-05-15 19:28:00,
2013-05-15 15:43:00,64.4,42.0,29.56,NW,311,5.0,22.0,45,0.00,,,0.00,weatherlink.com 1.10,2013-05-15 19:43:00,
2013-05-15 15:59:00,64.8,43.0,29.55,NW,312,10.0,24.0,45,0.00,,,0.00,weatherlink.com 1.10,2013-05-15 19:59:00,
2013-05-15 16:14:00,65.1,42.0,29.55,NNW,333,3.0,22.0,43,0.00,,,0.00,weatherlink.com 1.10,2013-05-15 20:14:00,
2013-05-15 16:44:00,66.1,40.0,29.55,WNW,291,8.0,24.0,39,0.00,,,0.00,weatherlink.com 1.10,2013-05-15 20:44:00,
2013-05-15 17:14:00,66.7,39.0,29.56,NW,319,6.0,24.0,37,0.00,,,0.00,weatherlink.com 1.10,2013-05-15 21:14:00,
2013-05-15 17:29:00,67.1,39.0,29.56,WNW,290,9.0,20.0,36,0.00,,,0.00,weatherlink.com 1.10,2013-05-15 21:29:00,
2013-05-15 17:44:00,67.4,38.0,29.56,NNW,338,6.0,18.0,34,0.00,,,0.00,weatherlink.com 1.10,2013-05-15 21:44:00,
2013-05-15 17:59:00,68.0,38.0,29.56,NNE,22,5.0,17.0,33,0.00,,,0.00,weatherlink.com 1.10,2013-05-15 21:59:00,
2013-05-15 18:29:00,68.2,39.0,29.56,WSW,246,12.0,20.0,34,0.00,,,0.00,weatherlink.com 1.10,2013-05-15 22:29:00,
2013-05-15 18:44:00,68.4,39.0,29.56,West,280,10.0,24.0,34,0.00,,,0.00,weatherlink.com 1.10,2013-05-15 22:44:00,
2013-05-15 18:59:00,68.4,40.0,29.56,West,266,4.0,16.0,35,0.00,,,0.00,weatherlink.com 1.10,2013-05-15 22:59:00,
2013-05-15 19:14:00,68.2,39.0,29.56,WSW,256,5.0,18.0,35,0.00,,,0.00,weatherlink.com 1.10,2013-05-15 23:14:00,
2013-05-15 19:29:00,67.9,39.0,29.57,WNW,294,6.0,16.0,35,0.00,,,0.00,weatherlink.com 1.10,2013-05-15 23:29:00,
2013-05-15 19:44:00,67.6,40.0,29.56,NW,304,8.0,14.0,36,0.00,,,0.00,weatherlink.com 1.10,2013-05-15 23:44:00,
2013-05-15 19:59:00,67.1,39.0,29.57,West,271,4.0,10.0,36,0.00,,,0.00,weatherlink.com 1.10,2013-05-15 23:59:00,
2013-05-15 20:14:00,66.0,40.0,29.57,NW,319,4.0,12.0,38,0.00,,,0.00,weatherlink.com 1.10,2013-05-16 00:14:00,
2013-05-15 20:29:00,65.3,40.0,29.57,NNW,328,2.0,12.0,39,0.00,,,0.00,weatherlink.com 1.10,2013-05-16 00:29:00,
2013-05-15 20:44:00,65.0,39.0,29.57,SE,129,3.0,8.0,39,0.00,,,0.00,weatherlink.com 1.10,2013-05-16 00:44:00,
2013-05-15 20:59:00,64.5,40.0,29.57,West,269,1.0,8.0,40,0.00,,,0.00,weatherlink.com 1.10,2013-05-16 00:59:00,
2013-05-15 21:14:00,63.9,40.0,29.57,WNW,290,0.0,5.0,41,0.00,,,0.00,weatherlink.com 1.10,2013-05-16 01:14:00,
2013-05-15 21:29:00,62.8,40.0,29.57,NW,326,0.0,2.0,43,0.00,,,0.00,weatherlink.com 1.10,2013-05-16 01:29:00,
2013-05-15 21:44:00,58.3,41.0,29.59,NNW,342,1.0,8.0,54,0.00,,,0.00,weatherlink.com 1.10,2013-05-16 01:44:00,
2013-05-15 21:59:00,58.9,40.0,29.59,NW,309,2.0,6.0,50,0.00,,,0.00,weatherlink.com 1.10,2013-05-16 01:59:00,
2013-05-15 22:14:00,58.4,40.0,29.59,NW,325,2.0,4.0,51,0.00,,,0.00,weatherlink.com 1.10,2013-05-16 02:14:00,
2013-05-15 22:29:00,56.7,40.0,29.60,NW,321,0.0,3.0,54,0.00,,,0.00,weatherlink.com 1.10,2013-05-16 02:29:00,
2013-05-15 22:59:00,53.4,40.0,29.60,West,267,0.0,1.0,60,0.00,,,0.00,weatherlink.com 1.10,2013-05-16 02:59:00,
2013-05-15 23:14:00,51.7,40.0,29.60,West,267,0.0,0.0,64,0.00,,,0.00,weatherlink.com 1.10,2013-05-16 03:14:00,
2013-05-15 23:29:00,50.6,39.0,29.60,WSW,257,0.0,1.0,65,0.00,,,0.00,weatherlink.com 1.10,2013-05-16 03:29:00,
2013-05-15 23:44:00,50.1,39.0,29.60,WSW,250,0.0,2.0,67,0.00,,,0.00,weatherlink.com 1.10,2013-05-16 03:44:00,
2013-05-15 23:59:00,49.4,39.0,29.60,WSW,253,0.0,1.0,68,0.00,,,0.00,weatherlink.com 1.10,2013-05-16 03:59:00,